Location: Ladrillo (historical)
(32.8195°N, 117.2231°W)
Time: 23:08:30
(UTC+00:00)

Altair - Pass Details

Date: 28 February 2021
Orbit: 1501 x 1683 km, 47.2° (Epoch: 16 April)

Event Time Altitude Azimuth Distance (km) Brightness Sun altitude
Rises 06:28:36 0° 291° (WNW) 4,685 10.5 -57.1°
Reaches altitude 10° 06:32:04 10° 301° (WNW) 3,725 9.8 -57.6°
Enters shadow 06:34:40 19° 313° (NW) 3,092 9.3 -58.0°
